IRIDIUM 30 [+]

Last updated on Aug. 30, 2017, 12:18 a.m. UTC

1 24949U 97051F   17241.58519681  .00304934 -98073-6  40747-3 0  9990
2 24949  86.3852 254.6130 0316921 266.6296  89.8671 15.53463317 44973

Satellite is not in orbit.